Change the Weather History Date:

Tuesday, June 11, 2013

  Actual Average Record
Temperature  
Mean Temperature 71 °F -  
Max Temperature 91 °F 77 °F 91 °F (2013)
Min Temperature 51 °F 40 °F 30 °F (2004)
Cooling Degree Days 6    
Growing Degree Days 21 (Base 50)    
Moisture  
Dew Point 24 °F    
Average Humidity 17    
Maximum Humidity 33    
Minimum Humidity 10    
Precipitation  
Precipitation 0.00 in - - ()
Sea Level Pressure  
Sea Level Pressure 30.22 in    
Wind  
Wind Speed 10 mph (West)    
Max Wind Speed 24 mph    
Max Gust Speed 38 mph    
Visibility 10 miles    
Events      
Averages and records for this station are not official NWS values.
T = Trace of Precipitation, MM = Missing Value Source: NWS Daily Summary

Daily Weather History Graph

Daily Weather History Graph

Search for Another Location

Airport or City:

Trip Planner

Search our weather history database for the weather conditions in past years. The results will help you decide how hot, cold, wet, or windy it might be!

Date:

Astronomy

Jun. 11, 2013 Rise Set
Actual Time 5:44 AM MDT 8:20 PM MDT
Civil Twilight 5:13 AM MDT 8:51 PM MDT
Nautical Twilight 4:35 AM MDT 9:29 PM MDT
Astronomical Twilight 3:53 AM MDT 10:11 PM MDT
Moon 8:26 AM MDT (6/11) 10:29 PM MDT (6/11)
Length of Visible Light 15h 37m
Length of Day
14h 36m
Waxing Crescent, 8% of the Moon is Illuminated
Jun 11
Waxing Crescent
Jun 16
First Quarter
Jun 23
Full
Jun 29
Last Quarter
Jul 8
New

Hourly Weather History & Observations

Time (MDT) Temp. Dew Point Humidity Pressure Visibility Wind Dir Wind Speed Gust Speed Precip Events Conditions
12:15 AM 69.8 °F 24.8 °F 18% 30.19 in 10.0 mi ESE 10.4 mph - N/A   Clear
12:35 AM 68.0 °F 24.8 °F 20% 30.19 in 10.0 mi SE 6.9 mph - N/A   Clear
12:55 AM 66.2 °F 24.8 °F 21% 30.20 in 10.0 mi Calm Calm - N/A   Clear
1:15 AM 66.2 °F 24.8 °F 21% 30.20 in 10.0 mi East 5.8 mph - N/A   Clear
1:35 AM 62.6 °F 24.8 °F 24% 30.20 in 10.0 mi North 3.5 mph - N/A   Clear
1:55 AM 64.4 °F 26.6 °F 24% 30.20 in 10.0 mi ENE 5.8 mph - N/A   Clear
2:15 AM 59.0 °F 24.8 °F 27% 30.21 in 10.0 mi North 10.4 mph - N/A   Clear
2:35 AM 62.6 °F 26.6 °F 26% 30.22 in 10.0 mi NE 5.8 mph - N/A   Clear
2:55 AM 60.8 °F 24.8 °F 25% 30.23 in 10.0 mi ENE 5.8 mph - N/A   Clear
3:15 AM 60.8 °F 26.6 °F 27% 30.23 in 10.0 mi East 4.6 mph - N/A   Clear
3:35 AM 59.0 °F 26.6 °F 29% 30.23 in 10.0 mi East 10.4 mph - N/A   Clear
3:55 AM 57.2 °F 26.6 °F 31% 30.24 in 10.0 mi East 10.4 mph - N/A   Clear
4:15 AM 57.2 °F 24.8 °F 29% 30.23 in 10.0 mi East 10.4 mph - N/A   Clear
4:35 AM 57.2 °F 24.8 °F 29% 30.24 in 10.0 mi East 9.2 mph - N/A   Clear
4:55 AM 55.4 °F 24.8 °F 31% 30.24 in 10.0 mi East 9.2 mph - N/A   Clear
5:15 AM 53.6 °F 24.8 °F 33% 30.25 in 10.0 mi East 9.2 mph - N/A   Clear
5:35 AM 51.8 °F 21.2 °F 30% 30.26 in 10.0 mi Calm Calm - N/A   Clear
5:55 AM 53.6 °F 24.8 °F 33% 30.27 in 10.0 mi North 3.5 mph - N/A   Clear
6:15 AM 53.6 °F 23.0 °F 30% 30.27 in 10.0 mi North 3.5 mph - N/A   Clear
6:35 AM 57.2 °F 26.6 °F 31% 30.28 in 10.0 mi North 3.5 mph - N/A   Clear
6:55 AM 59.0 °F 26.6 °F 29% 30.28 in 10.0 mi Calm Calm - N/A   Clear
7:15 AM 62.6 °F 26.6 °F 26% 30.28 in 10.0 mi Calm Calm - N/A   Clear
7:35 AM 68.0 °F 28.4 °F 23% 30.28 in 10.0 mi East 4.6 mph - N/A   Clear
7:55 AM 69.8 °F 26.6 °F 20% 30.29 in 10.0 mi Calm Calm - N/A   Clear
8:15 AM 71.6 °F 26.6 °F 19% 30.28 in 10.0 mi SW 8.1 mph - N/A   Clear
8:35 AM 73.4 °F 24.8 °F 16% 30.28 in 10.0 mi SSW 11.5 mph - N/A   Clear
8:55 AM 75.2 °F 24.8 °F 15% 30.29 in 10.0 mi SSW 11.5 mph 18.4 mph N/A   Clear
9:15 AM 75.2 °F 24.8 °F 15% 30.29 in 10.0 mi SSW 9.2 mph - N/A   Clear
9:35 AM 77.0 °F 24.8 °F 14% 30.28 in 10.0 mi SW 8.1 mph 16.1 mph N/A   Clear
9:55 AM 78.8 °F 24.8 °F 14% 30.28 in 10.0 mi SSW 10.4 mph 17.3 mph N/A   Clear
10:15 AM 80.6 °F 26.6 °F 14% 30.27 in 10.0 mi SW 13.8 mph 18.4 mph N/A   Clear
10:35 AM 82.4 °F 24.8 °F 12% 30.27 in 10.0 mi West 12.7 mph 19.6 mph N/A   Clear
10:55 AM 82.4 °F 26.6 °F 13% 30.26 in 10.0 mi West 17.3 mph 25.3 mph N/A   Clear
11:15 AM 84.2 °F 26.6 °F 12% 30.26 in 10.0 mi WSW 11.5 mph 18.4 mph N/A   Clear
11:35 AM 84.2 °F 26.6 °F 12% 30.26 in 10.0 mi WSW 13.8 mph 21.9 mph N/A   Clear
11:55 AM 87.8 °F 26.6 °F 11% 30.25 in 10.0 mi West 20.7 mph 27.6 mph N/A   Clear
12:15 PM 86.0 °F 26.6 °F 12% 30.25 in 10.0 mi WSW 19.6 mph 28.8 mph N/A   Clear
12:35 PM 87.8 °F 26.6 °F 11% 30.24 in 10.0 mi SW 15.0 mph 29.9 mph N/A   Clear
12:55 PM 87.8 °F 26.6 °F 11% 30.23 in 10.0 mi West 18.4 mph 29.9 mph N/A   Clear
1:15 PM 87.8 °F 26.6 °F 11% 30.22 in 10.0 mi WSW 16.1 mph 23.0 mph N/A   Clear
1:35 PM 89.6 °F 26.6 °F 10% 30.21 in 10.0 mi West 16.1 mph 25.3 mph N/A   Clear
1:55 PM 89.6 °F 26.6 °F 10% 30.21 in 10.0 mi West 16.1 mph 33.4 mph N/A   Clear
2:15 PM 91.4 °F 26.6 °F 10% 30.20 in 10.0 mi West 23.0 mph 33.4 mph N/A   Clear
2:35 PM 91.4 °F 28.4 °F 10% 30.20 in 10.0 mi West 20.7 mph 38.0 mph N/A   Clear
2:55 PM 91.4 °F 28.4 °F 10% 30.20 in 10.0 mi WSW 20.7 mph 31.1 mph N/A   Clear
3:15 PM 91.4 °F 28.4 °F 10% 30.19 in 10.0 mi West 19.6 mph 24.2 mph N/A   Clear
3:35 PM 91.4 °F 28.4 °F 10% 30.19 in 10.0 mi West 21.9 mph 32.2 mph N/A   Clear
3:55 PM 91.4 °F 28.4 °F 10% 30.18 in 10.0 mi WNW 15.0 mph 35.7 mph N/A   Clear
4:15 PM 91.4 °F 28.4 °F 10% 30.17 in 10.0 mi WSW 23.0 mph 33.4 mph N/A   Clear
4:35 PM 91.4 °F 28.4 °F 10% 30.16 in 10.0 mi WNW 18.4 mph 33.4 mph N/A   Clear
4:55 PM 91.4 °F 28.4 °F 10% 30.16 in 10.0 mi West 23.0 mph 36.8 mph N/A   Clear
5:15 PM 87.8 °F 26.6 °F 11% 30.16 in 10.0 mi WSW 23.0 mph 32.2 mph N/A   Clear
5:35 PM 87.8 °F 26.6 °F 11% 30.17 in 10.0 mi WNW 20.7 mph 28.8 mph N/A   Clear
5:55 PM 89.6 °F 26.6 °F 10% 30.16 in 10.0 mi West 24.2 mph - N/A   Clear
6:15 PM 87.8 °F 26.6 °F 11% 30.15 in 10.0 mi West 18.4 mph 31.1 mph N/A   Clear
6:35 PM 86.0 °F 24.8 °F 11% 30.15 in 10.0 mi West 23.0 mph - N/A   Clear
6:55 PM 87.8 °F 24.8 °F 10% 30.15 in 10.0 mi WSW 19.6 mph 27.6 mph N/A   Clear
7:15 PM 86.0 °F 24.8 °F 11% 30.16 in 10.0 mi West 18.4 mph - N/A   Clear
7:35 PM 86.0 °F 24.8 °F 11% 30.17 in 10.0 mi West 16.1 mph 21.9 mph N/A   Clear
7:55 PM 84.2 °F 23.0 °F 11% 30.18 in 10.0 mi West 11.5 mph 21.9 mph N/A   Clear
8:15 PM 80.6 °F 21.2 °F 11% 30.18 in 10.0 mi WNW 10.4 mph - N/A   Clear
8:35 PM 75.2 °F 17.6 °F 11% 30.19 in 10.0 mi WNW 8.1 mph - N/A   Clear
8:55 PM 71.6 °F 15.8 °F 12% 30.20 in 10.0 mi WNW 6.9 mph - N/A   Clear
9:15 PM 69.8 °F 12.2 °F 11% 30.21 in 10.0 mi NW 8.1 mph - N/A   Clear
9:35 PM 69.8 °F 12.2 °F 11% 30.22 in 10.0 mi NW 6.9 mph - N/A   Clear
9:55 PM 64.4 °F 10.4 °F 12% 30.23 in 10.0 mi NNE 9.2 mph - N/A   Clear
10:15 PM 64.4 °F 8.6 °F 11% 30.24 in 10.0 mi North 9.2 mph - N/A   Clear
10:35 PM 64.4 °F 8.6 °F 11% 30.25 in 10.0 mi North 10.4 mph - N/A   Clear
10:55 PM 62.6 °F 8.6 °F 12% 30.25 in 10.0 mi North 9.2 mph - N/A   Clear
11:15 PM 59.0 °F 8.6 °F 14% 30.25 in 10.0 mi ESE 8.1 mph - N/A   Clear
11:35 PM 60.8 °F 10.4 °F 14% 30.26 in 10.0 mi Calm Calm - N/A   Clear
11:55 PM 60.8 °F 10.4 °F 14% 30.26 in 10.0 mi SE 5.8 mph - N/A   Clear